COSMOS 252 DEB, 3784

Orbit data source: Space-Track

COSMOS 252 DEB, 3784 is space debris in LEO originally from a launch on Fri, 01 Nov 1968 UTC launched from the Tyuratam Missile And Space Complex (TTMTR). Debris objects in space refer to the collection of defunct objects orbiting the Earth. Examples of debris include non-operational satellites, rocket bodies, and fragments generated from explosions, collisions, or faulty payload assembly.

Loading next visibility...
Identifier
3784, 1968-097AW
Orbit
LEO
Country
Flag of CISCIS
Related business
Manufacturer
Unknown
Mission
Spacecraft
Bus & Motor
Unknown
Mass
Unknown
Launch date (UTC)
1968-11-01 (58 years ago)
Launch vehicle
Unknown
Launch site
Tyuratam Missile And Space Complex (TTMTR)
Object type
Payload
Rocket body
Debris
Shape & HBR
Unknown shape, 0.1 m
Radar Cross Section
Medium (>0.1 m² and <1 m²)

Expand to show TLE details & history
Last TLE update: 15 hours ago

TLE from 15 hours ago
0 COSMOS 252 DEB
1 03784U 68097AW  26174.90835362  .00001672  00000-0  10290-2 0  9998
2 03784  62.2425 354.7074 0638408  66.4827 300.1927 13.37313826 70890
Epoch: 2026-06-23T21:48Z
TLE epoch observation values (Epoch: 2026-06-23T21:48:01.752Z)
Latitude
-0.00001°
Longitude
115.62692°
Altitude
904.153 km
Speed
7.507 km/s
True Right ascension
23h 38m 49s
True Declination
0° 00' 00"
Sunlit
Object was in daylight at epoch
Visualization orbit readout
Latitude
Unknown
Longitude
Unknown
Altitude
Unknown
Speed
Unknown
Apparent Right ascension
Unknown
Apparent Declination
Unknown
Sunlit
N/A
Visualization observer readout
Local Sidereal Time
00:17:10
Azimuth
Unknown
Elevation
Unknown
Doppler factor
Unknown
Orbital elements
Apogee altitude
1,596.852 km
Perigee altitude
639.698 km
Semi-major axis
7,496.412 km
Eccentricity
0.06384
Inclination
62.2425°
RAAN
354.7074°
Arg. of periapsis
66.4827°
True anomaly
293.62013°
Mean anomaly
300.1927°
Eccentric anomaly
296.93159°
Mean motion
3.34398 °/min
Orbital period
107.66 mins
BSTAR
0.001029
Loading maneuver chart data...
Computing Atmospheric mass density...

Documentation

Showing up to 5 results
|